Time,TemperatureF,DewpointF,PressureIn,WindDirection,WindDirectionDegrees,WindSpeedMPH,WindSpeedGustMPH,Humidity,HourlyPrecipIn,Conditions,Clouds,dailyrainin,SolarRadiationWatts/m^2,SoftwareType,DateUTC
2013-05-08 00:02:00,54.0,44.8,29.71,ENE,62,8.1,0.0,71,0.00,CLR,CLR,0.00,0.0,WeatherDisplay:10.37,2013-05-08 07:02:00,
2013-05-08 00:07:00,54.0,44.8,29.71,ENE,62,8.1,0.0,71,0.00,CLR,CLR,0.00,0.0,WeatherDisplay:10.37,2013-05-08 07:07:00,
2013-05-08 00:12:00,54.0,44.8,29.71,ENE,62,8.1,0.0,71,0.00,CLR,CLR,0.00,0.0,WeatherDisplay:10.37,2013-05-08 07:12:00,
2013-05-08 00:17:00,53.6,44.8,29.71,ENE,62,8.1,0.0,72,0.00,CLR,CLR,0.00,0.0,WeatherDisplay:10.37,2013-05-08 07:17:00,
2013-05-08 00:22:00,53.6,44.8,29.71,ENE,62,8.1,0.0,72,0.00,CLR,CLR,0.00,0.0,WeatherDisplay:10.37,2013-05-08 07:22:00,
2013-05-08 00:27:00,53.6,44.8,29.71,East,80,8.1,0.0,72,0.00,CLR,CLR,0.00,0.0,WeatherDisplay:10.37,2013-05-08 07:27:00,
2013-05-08 00:32:00,53.6,44.8,29.71,NE,54,8.1,0.0,72,0.00,CLR,CLR,0.00,0.0,WeatherDisplay:10.37,2013-05-08 07:32:00,
2013-05-08 00:37:00,53.6,44.8,29.71,NE,54,8.1,0.0,72,0.00,CLR,CLR,0.00,0.0,WeatherDisplay:10.37,2013-05-08 07:37:00,
2013-05-08 00:42:00,53.6,44.8,29.71,NNW,341,8.1,0.0,72,0.00,CLR,CLR,0.00,0.0,WeatherDisplay:10.37,2013-05-08 07:42:00,
2013-05-08 00:47:00,53.6,44.8,29.71,NNW,341,8.1,0.0,72,0.00,CLR,CLR,0.00,0.0,WeatherDisplay:10.37,2013-05-08 07:47:00,
2013-05-08 00:52:00,53.6,44.8,29.71,NNW,341,8.1,0.0,72,0.00,CLR,CLR,0.00,0.0,WeatherDisplay:10.37,2013-05-08 07:52:00,
2013-05-08 00:57:00,53.6,44.8,29.71,NNW,341,8.1,0.0,72,0.00,CLR,CLR,0.00,0.0,WeatherDisplay:10.37,2013-05-08 07:57:00,
2013-05-08 01:02:00,53.6,44.8,29.71,NNW,341,8.1,0.0,72,0.00,CLR,CLR,0.00,0.0,WeatherDisplay:10.37,2013-05-08 08:02:00,
2013-05-08 01:08:00,53.6,44.8,29.71,NNW,341,8.1,0.0,72,0.00,CLR,CLR,0.00,0.0,WeatherDisplay:10.37,2013-05-08 08:08:00,
2013-05-08 01:13:00,53.6,44.8,29.71,NNW,341,8.1,0.0,72,0.00,CLR,CLR,0.00,0.0,WeatherDisplay:10.37,2013-05-08 08:13:00,
2013-05-08 01:18:00,53.6,44.8,29.71,South,176,8.1,0.0,72,0.00,CLR,CLR,0.00,0.0,WeatherDisplay:10.37,2013-05-08 08:18:00,
2013-05-08 01:23:00,53.1,45.3,29.71,South,176,8.1,0.0,75,0.00,CLR,CLR,0.00,0.0,WeatherDisplay:10.37,2013-05-08 08:23:00,
2013-05-08 01:28:00,53.1,45.3,29.71,South,176,8.1,0.0,75,0.00,CLR,CLR,0.00,0.0,WeatherDisplay:10.37,2013-05-08 08:28:00,
2013-05-08 01:33:00,53.1,45.3,29.71,South,183,8.1,0.0,75,0.00,CLR,CLR,0.00,0.0,WeatherDisplay:10.37,2013-05-08 08:33:00,
2013-05-08 01:38:00,53.1,45.3,29.71,South,183,8.1,0.0,75,0.00,CLR,CLR,0.00,0.0,WeatherDisplay:10.37,2013-05-08 08:38:00,
2013-05-08 01:43:00,53.1,45.3,29.71,South,183,8.1,0.0,75,0.00,CLR,CLR,0.00,0.0,WeatherDisplay:10.37,2013-05-08 08:43:00,
2013-05-08 01:48:00,32.0,-31.6,29.74,North,353,8.1,0.0,5,0.00,CLR,CLR,0.00,0.0,WeatherDisplay:10.37,2013-05-08 08:48:00,
2013-05-08 01:53:00,52.9,45.2,29.74,North,353,8.1,0.0,75,0.00,CLR,CLR,0.00,0.0,WeatherDisplay:10.37,2013-05-08 08:53:00,
2013-05-08 01:58:00,52.9,45.2,29.74,North,353,8.1,0.0,75,0.00,CLR,CLR,0.00,0.0,WeatherDisplay:10.37,2013-05-08 08:58:00,
2013-05-08 02:04:00,52.9,45.2,29.74,North,353,8.1,0.0,75,0.00,CLR,CLR,0.00,0.0,WeatherDisplay:10.37,2013-05-08 09:04:00,
2013-05-08 02:09:00,52.9,45.2,29.74,North,353,8.1,0.0,75,0.00,CLR,CLR,0.00,0.0,WeatherDisplay:10.37,2013-05-08 09:09:00,
2013-05-08 02:14:00,52.9,45.2,29.74,North,353,8.1,0.0,75,0.00,CLR,CLR,0.00,0.0,WeatherDisplay:10.37,2013-05-08 09:14:00,
2013-05-08 02:19:00,52.9,45.2,29.74,North,353,8.1,0.0,75,0.00,CLR,CLR,0.00,0.0,WeatherDisplay:10.37,2013-05-08 09:19:00,
2013-05-08 02:24:00,52.9,45.2,29.74,North,353,8.1,0.0,75,0.00,CLR,CLR,0.00,0.0,WeatherDisplay:10.37,2013-05-08 09:24:00,
2013-05-08 02:29:00,52.9,45.2,29.74,North,353,8.1,0.0,75,0.00,CLR,CLR,0.00,0.0,WeatherDisplay:10.37,2013-05-08 09:29:00,
2013-05-08 02:34:00,52.9,45.2,29.74,North,353,8.1,0.0,75,0.00,CLR,CLR,0.00,0.0,WeatherDisplay:10.37,2013-05-08 09:34:00,
2013-05-08 02:39:00,52.9,45.2,29.74,ENE,78,8.1,0.0,75,0.00,CLR,CLR,0.00,0.0,WeatherDisplay:10.37,2013-05-08 09:39:00,
2013-05-08 02:44:00,52.9,45.2,29.74,ENE,78,8.1,0.0,75,0.00,CLR,CLR,0.00,0.0,WeatherDisplay:10.37,2013-05-08 09:44:00,
2013-05-08 02:49:00,52.9,45.2,29.74,ENE,78,8.1,0.0,75,0.00,CLR,CLR,0.00,0.0,WeatherDisplay:10.37,2013-05-08 09:49:00,
2013-05-08 02:54:00,52.9,45.2,29.74,ENE,78,8.1,0.0,75,0.00,CLR,CLR,0.00,0.0,WeatherDisplay:10.37,2013-05-08 09:54:00,
2013-05-08 02:59:00,52.9,45.2,29.74,ENE,78,8.1,0.0,75,0.00,CLR,CLR,0.00,0.0,WeatherDisplay:10.37,2013-05-08 09:59:00,
2013-05-08 03:04:00,52.9,45.2,29.74,North,0,8.1,0.0,75,0.00,CLR,CLR,0.00,0.0,WeatherDisplay:10.37,2013-05-08 10:04:00,
2013-05-08 03:09:00,52.9,45.2,29.74,North,0,8.1,0.0,75,0.00,CLR,CLR,0.00,0.0,WeatherDisplay:10.37,2013-05-08 10:09:00,
2013-05-08 03:14:00,52.9,45.2,29.74,North,0,8.1,0.0,75,0.00,CLR,CLR,0.00,0.0,WeatherDisplay:10.37,2013-05-08 10:14:00,
2013-05-08 03:19:00,52.9,45.2,29.74,North,0,8.1,0.0,75,0.00,CLR,CLR,0.00,0.0,WeatherDisplay:10.37,2013-05-08 10:19:00,
2013-05-08 03:24:00,52.9,45.2,29.74,North,0,8.1,0.0,75,0.00,CLR,CLR,0.00,0.0,WeatherDisplay:10.37,2013-05-08 10:24:00,
2013-05-08 03:29:00,52.9,45.2,29.74,North,0,8.1,0.0,75,0.00,CLR,CLR,0.00,0.0,WeatherDisplay:10.37,2013-05-08 10:29:00,
2013-05-08 03:34:00,52.9,45.2,29.74,North,0,8.1,0.0,75,0.00,CLR,CLR,0.00,0.0,WeatherDisplay:10.37,2013-05-08 10:34:00,
2013-05-08 03:40:00,52.7,45.0,29.74,North,0,8.1,0.0,75,0.00,CLR,CLR,0.00,0.0,WeatherDisplay:10.37,2013-05-08 10:40:00,
2013-05-08 03:45:00,52.7,45.0,29.74,North,0,8.1,0.0,75,0.00,CLR,CLR,0.00,0.0,WeatherDisplay:10.37,2013-05-08 10:45:00,
2013-05-08 03:50:00,52.7,45.0,29.74,North,0,8.1,0.0,75,0.00,CLR,CLR,0.00,0.0,WeatherDisplay:10.37,2013-05-08 10:50:00,
2013-05-08 03:55:00,52.7,45.0,29.74,North,0,8.1,0.0,75,0.00,CLR,CLR,0.00,0.0,WeatherDisplay:10.37,2013-05-08 10:55:00,
2013-05-08 04:00:00,52.7,45.0,29.74,NNW,346,8.1,0.0,75,0.00,CLR,CLR,0.00,0.0,WeatherDisplay:10.37,2013-05-08 11:00:00,
2013-05-08 04:05:00,52.7,45.0,29.74,NNW,346,8.1,0.0,75,0.00,CLR,CLR,0.00,0.0,WeatherDisplay:10.37,2013-05-08 11:05:00,
2013-05-08 04:10:00,52.7,45.0,29.74,NNW,346,8.1,0.0,75,0.00,CLR,CLR,0.00,0.0,WeatherDisplay:10.37,2013-05-08 11:10:00,
2013-05-08 04:16:00,52.7,45.0,29.74,NNW,346,8.1,0.0,75,0.00,CLR,CLR,0.00,0.0,WeatherDisplay:10.37,2013-05-08 11:16:00,
2013-05-08 04:21:00,52.7,45.0,29.74,NNW,346,8.1,0.0,75,0.00,CLR,CLR,0.00,0.0,WeatherDisplay:10.37,2013-05-08 11:21:00,
2013-05-08 04:26:00,52.7,45.0,29.74,NNW,346,8.1,0.0,75,0.00,CLR,CLR,0.00,0.0,WeatherDisplay:10.37,2013-05-08 11:26:00,
2013-05-08 04:31:00,52.7,45.0,29.74,NNW,346,8.1,0.0,75,0.00,CLR,CLR,0.00,0.0,WeatherDisplay:10.37,2013-05-08 11:31:00,
2013-05-08 04:36:00,52.7,45.0,29.74,NNW,346,8.1,0.0,75,0.00,CLR,CLR,0.00,0.0,WeatherDisplay:10.37,2013-05-08 11:36:00,
2013-05-08 04:41:00,52.7,45.0,29.74,NNW,346,8.1,0.0,75,0.00,CLR,CLR,0.00,0.0,WeatherDisplay:10.37,2013-05-08 11:41:00,
2013-05-08 04:46:00,52.7,45.0,29.74,NNW,346,8.1,0.0,75,0.00,CLR,CLR,0.00,0.0,WeatherDisplay:10.37,2013-05-08 11:46:00,
2013-05-08 04:51:00,52.7,45.0,29.74,NNW,346,8.1,0.0,75,0.00,CLR,CLR,0.00,0.0,WeatherDisplay:10.37,2013-05-08 11:51:00,
2013-05-08 04:56:00,52.7,45.0,29.74,NNW,346,8.1,0.0,75,0.00,CLR,CLR,0.00,0.0,WeatherDisplay:10.37,2013-05-08 11:56:00,
2013-05-08 05:01:00,52.7,45.0,29.74,NNW,346,8.1,0.0,75,0.00,CLR,CLR,0.00,0.0,WeatherDisplay:10.37,2013-05-08 12:01:00,
2013-05-08 05:06:00,52.7,45.3,29.74,NNW,346,8.1,0.0,76,0.00,CLR,CLR,0.00,0.0,WeatherDisplay:10.37,2013-05-08 12:06:00,
2013-05-08 05:12:00,52.7,45.3,29.74,NNW,346,8.1,0.0,76,0.00,CLR,CLR,0.00,0.0,WeatherDisplay:10.37,2013-05-08 12:12:00,
2013-05-08 05:17:00,52.7,45.3,29.74,NNW,346,8.1,0.0,76,0.00,CLR,CLR,0.00,0.0,WeatherDisplay:10.37,2013-05-08 12:17:00,
2013-05-08 05:22:00,52.7,45.3,29.74,NNW,346,8.1,0.0,76,0.00,CLR,CLR,0.00,0.0,WeatherDisplay:10.37,2013-05-08 12:22:00,
2013-05-08 05:27:00,52.7,45.3,29.74,NNW,346,8.1,0.0,76,0.00,CLR,CLR,0.00,0.0,WeatherDisplay:10.37,2013-05-08 12:27:00,
2013-05-08 05:32:00,52.7,45.3,29.74,NNW,346,8.1,0.0,76,0.00,CLR,CLR,0.00,0.0,WeatherDisplay:10.37,2013-05-08 12:32:00,
2013-05-08 05:37:00,52.7,45.3,29.74,NNW,346,8.1,0.0,76,0.00,CLR,CLR,0.00,0.0,WeatherDisplay:10.37,2013-05-08 12:37:00,
2013-05-08 05:43:00,52.7,45.3,29.74,NNW,346,8.1,0.0,76,0.00,CLR,CLR,0.00,0.0,WeatherDisplay:10.37,2013-05-08 12:43:00,
2013-05-08 05:48:00,52.7,45.3,29.74,NNW,346,8.1,0.0,76,0.00,CLR,CLR,0.00,0.0,WeatherDisplay:10.37,2013-05-08 12:48:00,
2013-05-08 05:53:00,52.7,45.3,29.74,NNW,346,8.1,0.0,76,0.00,CLR,CLR,0.00,0.0,WeatherDisplay:10.37,2013-05-08 12:53:00,
2013-05-08 05:58:00,52.7,45.3,29.74,NNW,346,8.1,0.0,76,0.00,CLR,CLR,0.00,0.0,WeatherDisplay:10.37,2013-05-08 12:58:00,
2013-05-08 06:03:00,52.7,45.3,29.74,NNW,346,8.1,0.0,76,0.00,CLR,CLR,0.00,0.0,WeatherDisplay:10.37,2013-05-08 13:03:00,
2013-05-08 06:08:00,52.7,45.3,29.74,NNW,346,8.1,0.0,76,0.00,CLR,CLR,0.00,0.0,WeatherDisplay:10.37,2013-05-08 13:08:00,
2013-05-08 06:13:00,52.7,45.3,29.74,NNW,346,8.1,0.0,76,0.00,CLR,CLR,0.00,0.0,WeatherDisplay:10.37,2013-05-08 13:13:00,
2013-05-08 06:18:00,52.3,45.0,29.74,NNW,346,8.1,0.0,76,0.00,CLR,CLR,0.00,0.0,WeatherDisplay:10.37,2013-05-08 13:18:00,
2013-05-08 06:23:00,52.3,45.0,29.74,NNW,346,8.1,0.0,76,0.00,CLR,CLR,0.00,0.0,WeatherDisplay:10.37,2013-05-08 13:23:00,
2013-05-08 06:28:00,52.3,45.0,29.74,NNW,346,8.1,0.0,76,0.00,CLR,CLR,0.00,0.0,WeatherDisplay:10.37,2013-05-08 13:28:00,
2013-05-08 06:33:00,52.3,45.0,29.74,NNW,346,8.1,0.0,76,0.00,CLR,CLR,0.00,0.0,WeatherDisplay:10.37,2013-05-08 13:33:00,
2013-05-08 06:38:00,52.3,45.0,29.74,NNW,346,8.1,0.0,76,0.00,CLR,CLR,0.00,0.0,WeatherDisplay:10.37,2013-05-08 13:38:00,
2013-05-08 06:44:00,52.3,45.0,29.74,NNW,346,8.1,0.0,76,0.00,CLR,CLR,0.00,0.0,WeatherDisplay:10.37,2013-05-08 13:44:00,
2013-05-08 06:49:00,52.3,45.0,29.74,NNW,346,8.1,0.0,76,0.00,CLR,CLR,0.00,0.0,WeatherDisplay:10.37,2013-05-08 13:49:00,
2013-05-08 06:54:00,52.3,45.0,29.74,NNW,346,8.1,0.0,76,0.00,CLR,CLR,0.00,0.0,WeatherDisplay:10.37,2013-05-08 13:54:00,
2013-05-08 06:59:00,52.3,45.0,29.74,NNW,346,8.1,0.0,76,0.00,CLR,CLR,0.00,0.0,WeatherDisplay:10.37,2013-05-08 13:59:00,
2013-05-08 07:04:00,52.3,45.0,29.74,NNW,346,8.1,0.0,76,0.00,CLR,CLR,0.00,0.0,WeatherDisplay:10.37,2013-05-08 14:04:00,
2013-05-08 07:09:00,52.3,45.0,29.74,NNW,346,8.1,0.0,76,0.00,CLR,CLR,0.00,0.0,WeatherDisplay:10.37,2013-05-08 14:09:00,
2013-05-08 07:14:00,52.3,45.0,29.74,NNW,346,8.1,0.0,76,0.00,CLR,CLR,0.00,0.0,WeatherDisplay:10.37,2013-05-08 14:14:00,
2013-05-08 07:19:00,52.3,45.0,29.74,NNW,346,8.1,0.0,76,0.00,CLR,CLR,0.00,0.0,WeatherDisplay:10.37,2013-05-08 14:19:00,
2013-05-08 07:24:00,52.3,45.0,29.74,NNW,346,8.1,0.0,76,0.00,CLR,CLR,0.00,0.0,WeatherDisplay:10.37,2013-05-08 14:24:00,
2013-05-08 07:29:00,52.3,45.0,29.77,NE,35,8.1,0.0,76,0.00,CLR,CLR,0.00,0.0,WeatherDisplay:10.37,2013-05-08 14:29:00,
2013-05-08 07:35:00,52.3,45.0,29.77,NE,35,8.1,0.0,76,0.00,CLR,CLR,0.00,0.0,WeatherDisplay:10.37,2013-05-08 14:35:00,
2013-05-08 07:40:00,52.3,45.0,29.77,NE,35,8.1,0.0,76,0.00,CLR,CLR,0.00,0.0,WeatherDisplay:10.37,2013-05-08 14:40:00,
2013-05-08 07:45:00,52.3,45.0,29.77,NE,35,8.1,0.0,76,0.00,CLR,CLR,0.00,0.0,WeatherDisplay:10.37,2013-05-08 14:45:00,
2013-05-08 07:50:00,52.3,45.0,29.77,NE,35,8.1,0.0,76,0.00,CLR,CLR,0.00,0.0,WeatherDisplay:10.37,2013-05-08 14:50:00,
2013-05-08 07:55:00,52.3,45.0,29.77,NE,35,8.1,0.0,76,0.00,CLR,CLR,0.00,0.0,WeatherDisplay:10.37,2013-05-08 14:55:00,
2013-05-08 08:01:00,52.3,45.0,29.77,NE,35,8.1,0.0,76,0.00,CLR,CLR,0.00,0.0,WeatherDisplay:10.37,2013-05-08 15:01:00,
2013-05-08 08:06:00,52.3,45.0,29.77,NE,35,8.1,0.0,76,0.00,CLR,CLR,0.00,0.0,WeatherDisplay:10.37,2013-05-08 15:06:00,
2013-05-08 08:11:00,54.1,46.0,29.77,NE,35,8.1,0.0,74,0.00,CLR,CLR,0.00,0.0,WeatherDisplay:10.37,2013-05-08 15:11:00,
2013-05-08 08:16:00,54.1,46.0,29.77,NE,35,8.1,0.0,74,0.00,CLR,CLR,0.00,0.0,WeatherDisplay:10.37,2013-05-08 15:16:00,
2013-05-08 08:21:00,54.1,46.0,29.77,NE,35,8.1,0.0,74,0.00,CLR,CLR,0.00,0.0,WeatherDisplay:10.37,2013-05-08 15:21:00,
2013-05-08 08:26:00,54.1,46.0,29.77,NE,35,8.1,0.0,74,0.00,CLR,CLR,0.00,0.0,WeatherDisplay:10.37,2013-05-08 15:26:00,
2013-05-08 08:31:00,54.1,46.0,29.77,NE,35,8.1,0.0,74,0.00,CLR,CLR,0.00,0.0,WeatherDisplay:10.37,2013-05-08 15:31:00,
2013-05-08 08:36:00,54.1,46.0,29.77,NE,35,8.1,0.0,74,0.00,CLR,CLR,0.00,0.0,WeatherDisplay:10.37,2013-05-08 15:36:00,
2013-05-08 08:41:00,54.5,45.3,29.77,NE,35,8.1,0.0,71,0.00,CLR,CLR,0.00,0.0,WeatherDisplay:10.37,2013-05-08 15:41:00,
2013-05-08 08:46:00,54.5,45.3,29.77,NE,35,8.1,0.0,71,0.00,CLR,CLR,0.00,0.0,WeatherDisplay:10.37,2013-05-08 15:46:00,
2013-05-08 08:51:00,54.5,45.3,29.77,NE,35,8.1,0.0,71,0.00,CLR,CLR,0.00,0.0,WeatherDisplay:10.37,2013-05-08 15:51:00,
2013-05-08 08:56:00,54.5,45.3,29.77,NE,35,8.1,0.0,71,0.00,CLR,CLR,0.00,0.0,WeatherDisplay:10.37,2013-05-08 15:56:00,
2013-05-08 09:01:00,54.5,45.3,29.80,NE,35,8.1,0.0,71,0.00,CLR,CLR,0.00,0.0,WeatherDisplay:10.37,2013-05-08 16:01:00,
2013-05-08 09:06:00,54.5,45.3,29.80,NE,35,8.1,0.0,71,0.00,CLR,CLR,0.00,0.0,WeatherDisplay:10.37,2013-05-08 16:06:00,
2013-05-08 09:11:00,54.5,45.3,29.80,NE,35,8.1,0.0,71,0.00,CLR,CLR,0.00,0.0,WeatherDisplay:10.37,2013-05-08 16:11:00,
2013-05-08 09:16:00,54.5,45.3,29.80,NE,35,8.1,0.0,71,0.00,CLR,CLR,0.00,0.0,WeatherDisplay:10.37,2013-05-08 16:16:00,
2013-05-08 09:21:00,54.5,45.3,29.80,NE,35,8.1,0.0,71,0.00,CLR,CLR,0.00,0.0,WeatherDisplay:10.37,2013-05-08 16:21:00,
2013-05-08 09:27:00,32.0,-47.5,29.80,NE,35,8.1,0.0,2,0.00,CLR,CLR,0.00,0.0,WeatherDisplay:10.37,2013-05-08 16:27:00,
2013-05-08 09:32:00,32.0,-47.5,29.80,NE,35,8.1,0.0,2,0.00,CLR,CLR,0.00,0.0,WeatherDisplay:10.37,2013-05-08 16:32:00,
2013-05-08 09:37:00,32.0,-47.5,29.80,NE,35,8.1,0.0,2,0.00,CLR,CLR,0.00,0.0,WeatherDisplay:10.37,2013-05-08 16:37:00,
2013-05-08 09:42:00,32.0,-47.5,29.80,NE,35,8.1,0.0,2,0.00,CLR,CLR,0.00,0.0,WeatherDisplay:10.37,2013-05-08 16:42:00,
2013-05-08 09:47:00,32.0,-47.5,29.80,NE,35,8.1,0.0,2,0.00,CLR,CLR,0.00,0.0,WeatherDisplay:10.37,2013-05-08 16:47:00,
2013-05-08 09:52:00,32.0,-47.5,29.80,NE,35,8.1,0.0,2,0.00,CLR,CLR,0.00,0.0,WeatherDisplay:10.37,2013-05-08 16:52:00,
2013-05-08 09:57:00,32.0,-47.5,29.80,NE,35,8.1,0.0,2,0.00,CLR,CLR,0.00,0.0,WeatherDisplay:10.37,2013-05-08 16:57:00,
2013-05-08 10:02:00,32.0,-47.5,29.83,NE,35,8.1,0.0,2,0.00,CLR,CLR,0.00,0.0,WeatherDisplay:10.37,2013-05-08 17:02:00,
2013-05-08 10:07:00,32.0,-47.5,29.83,NE,35,8.1,0.0,2,0.00,CLR,CLR,0.00,0.0,WeatherDisplay:10.37,2013-05-08 17:07:00,
2013-05-08 10:13:00,32.0,-47.5,29.83,NE,35,8.1,0.0,2,0.00,CLR,CLR,0.00,0.0,WeatherDisplay:10.37,2013-05-08 17:13:00,
2013-05-08 10:18:00,32.0,-47.5,29.83,NE,35,8.1,0.0,2,0.00,CLR,CLR,0.00,0.0,WeatherDisplay:10.37,2013-05-08 17:18:00,
2013-05-08 10:23:00,32.0,-47.5,29.83,NE,35,8.1,0.0,2,0.00,CLR,CLR,0.00,0.0,WeatherDisplay:10.37,2013-05-08 17:23:00,
2013-05-08 10:28:00,32.0,-47.5,29.83,NE,35,8.1,0.0,2,0.00,CLR,CLR,0.00,0.0,WeatherDisplay:10.37,2013-05-08 17:28:00,
2013-05-08 10:33:00,32.0,-47.5,29.83,NE,35,8.1,0.0,2,0.00,CLR,CLR,0.00,0.0,WeatherDisplay:10.37,2013-05-08 17:33:00,
2013-05-08 10:38:00,32.0,-47.5,29.83,NE,35,8.1,0.0,2,0.00,CLR,CLR,0.00,0.0,WeatherDisplay:10.37,2013-05-08 17:38:00,
2013-05-08 10:43:00,32.0,-47.5,29.83,NE,35,8.1,0.0,2,0.00,CLR,CLR,0.00,0.0,WeatherDisplay:10.37,2013-05-08 17:43:00,
2013-05-08 10:48:00,32.0,-47.5,29.83,NE,35,8.1,0.0,2,0.00,CLR,CLR,0.00,0.0,WeatherDisplay:10.37,2013-05-08 17:48:00,
2013-05-08 10:53:00,32.0,-47.5,29.83,NE,35,8.1,0.0,2,0.00,CLR,CLR,0.00,0.0,WeatherDisplay:10.37,2013-05-08 17:53:00,
2013-05-08 10:59:00,32.0,-47.5,29.83,NE,35,8.1,0.0,2,0.00,CLR,CLR,0.00,0.0,WeatherDisplay:10.37,2013-05-08 17:59:00,
2013-05-08 11:04:00,32.0,-47.5,29.83,NE,35,8.1,0.0,2,0.00,CLR,CLR,0.00,0.0,WeatherDisplay:10.37,2013-05-08 18:04:00,
2013-05-08 11:09:00,32.0,-47.5,29.83,NE,35,8.1,0.0,2,0.00,CLR,CLR,0.00,0.0,WeatherDisplay:10.37,2013-05-08 18:09:00,
2013-05-08 11:14:00,32.0,-47.5,29.83,NE,35,8.1,0.0,2,0.00,CLR,CLR,0.00,0.0,WeatherDisplay:10.37,2013-05-08 18:14:00,
2013-05-08 11:19:00,32.0,-47.5,29.83,NE,35,8.1,0.0,2,0.00,CLR,CLR,0.00,0.0,WeatherDisplay:10.37,2013-05-08 18:19:00,
2013-05-08 11:24:00,32.0,-47.5,29.83,NE,35,8.1,0.0,2,0.00,CLR,CLR,0.00,0.0,WeatherDisplay:10.37,2013-05-08 18:24:00,
2013-05-08 11:29:00,32.0,-47.5,29.85,NE,35,8.1,0.0,2,0.00,CLR,CLR,0.00,0.0,WeatherDisplay:10.37,2013-05-08 18:29:00,
2013-05-08 11:34:00,32.0,-47.5,29.85,NE,35,8.1,0.0,2,0.00,CLR,CLR,0.00,0.0,WeatherDisplay:10.37,2013-05-08 18:34:00,
2013-05-08 11:39:00,32.0,-47.5,29.85,North,0,8.1,0.0,2,0.00,CLR,CLR,0.00,0.0,WeatherDisplay:10.37,2013-05-08 18:39:00,
2013-05-08 11:44:00,32.0,-47.5,29.85,North,0,8.1,0.0,2,0.00,CLR,CLR,0.00,0.0,WeatherDisplay:10.37,2013-05-08 18:44:00,
2013-05-08 11:49:00,32.0,-47.5,29.85,North,0,8.1,0.0,2,0.00,CLR,CLR,0.00,0.0,WeatherDisplay:10.37,2013-05-08 18:49:00,
2013-05-08 11:54:00,32.0,-47.5,29.85,North,0,8.1,0.0,2,0.00,CLR,CLR,0.00,0.0,WeatherDisplay:10.37,2013-05-08 18:54:00,
2013-05-08 11:59:00,32.0,-47.5,29.85,North,0,8.1,0.0,2,0.00,CLR,CLR,0.00,0.0,WeatherDisplay:10.37,2013-05-08 18:59:00,
2013-05-08 12:04:00,32.0,-47.5,29.85,North,0,8.1,0.0,2,0.00,CLR,CLR,0.00,0.0,WeatherDisplay:10.37,2013-05-08 19:04:00,
2013-05-08 12:09:00,32.0,-47.5,29.85,North,0,8.1,0.0,2,0.00,CLR,CLR,0.00,0.0,WeatherDisplay:10.37,2013-05-08 19:09:00,
2013-05-08 12:14:00,32.0,-47.5,29.85,North,0,8.1,0.0,2,0.00,CLR,CLR,0.00,0.0,WeatherDisplay:10.37,2013-05-08 19:14:00,
2013-05-08 12:19:00,32.0,-47.5,29.85,North,0,8.1,0.0,2,0.00,CLR,CLR,0.00,0.0,WeatherDisplay:10.37,2013-05-08 19:19:00,
2013-05-08 12:25:00,58.6,40.6,29.85,WNW,296,8.1,0.0,51,0.00,CLR,CLR,0.00,0.0,WeatherDisplay:10.37,2013-05-08 19:25:00,
2013-05-08 12:30:00,58.6,40.6,29.85,WNW,287,8.1,0.0,51,0.00,CLR,CLR,0.00,0.0,WeatherDisplay:10.37,2013-05-08 19:30:00,
2013-05-08 12:35:00,58.6,40.6,29.85,WNW,287,8.1,0.0,51,0.00,CLR,CLR,0.00,0.0,WeatherDisplay:10.37,2013-05-08 19:35:00,
2013-05-08 12:40:00,58.6,40.6,29.85,North,353,8.1,8.1,51,0.00,CLR,CLR,0.00,0.0,WeatherDisplay:10.37,2013-05-08 19:40:00,
2013-05-08 12:45:00,58.6,40.6,29.85,North,353,8.1,8.1,51,0.00,CLR,CLR,0.00,0.0,WeatherDisplay:10.37,2013-05-08 19:45:00,
2013-05-08 12:50:00,58.6,40.6,29.85,North,353,8.1,8.1,51,0.00,CLR,CLR,0.00,0.0,WeatherDisplay:10.37,2013-05-08 19:50:00,
2013-05-08 12:55:00,58.6,40.6,29.85,North,353,8.1,8.1,51,0.00,CLR,CLR,0.00,0.0,WeatherDisplay:10.37,2013-05-08 19:55:00,
2013-05-08 13:00:00,58.6,40.6,29.85,North,353,8.1,8.1,51,0.00,CLR,CLR,0.00,0.0,WeatherDisplay:10.37,2013-05-08 20:00:00,
2013-05-08 13:05:00,58.6,40.6,29.88,North,353,8.1,8.1,51,0.00,CLR,CLR,0.00,0.0,WeatherDisplay:10.37,2013-05-08 20:05:00,
2013-05-08 13:10:00,58.6,40.6,29.88,North,353,8.1,8.1,51,0.00,CLR,CLR,0.00,0.0,WeatherDisplay:10.37,2013-05-08 20:10:00,
2013-05-08 13:16:00,58.6,40.6,29.88,North,353,8.1,8.1,51,0.00,CLR,CLR,0.00,0.0,WeatherDisplay:10.37,2013-05-08 20:16:00,
2013-05-08 13:21:00,58.6,40.6,29.88,North,353,8.1,8.1,51,0.00,CLR,CLR,0.00,0.0,WeatherDisplay:10.37,2013-05-08 20:21:00,
2013-05-08 13:26:00,58.6,40.6,29.88,North,353,8.1,8.1,51,0.00,CLR,CLR,0.00,0.0,WeatherDisplay:10.37,2013-05-08 20:26:00,
2013-05-08 13:31:00,58.6,40.6,29.88,North,353,8.1,8.1,51,0.00,CLR,CLR,0.00,0.0,WeatherDisplay:10.37,2013-05-08 20:31:00,
2013-05-08 13:36:00,62.1,39.3,29.88,North,353,8.1,8.1,43,0.00,CLR,CLR,0.00,0.0,WeatherDisplay:10.37,2013-05-08 20:36:00,
2013-05-08 13:41:00,62.6,39.2,29.88,North,353,8.1,8.1,42,0.00,CLR,CLR,0.00,0.0,WeatherDisplay:10.37,2013-05-08 20:41:00,
2013-05-08 13:46:00,62.6,39.2,29.88,North,353,8.1,8.1,42,0.00,CLR,CLR,0.00,0.0,WeatherDisplay:10.37,2013-05-08 20:46:00,
2013-05-08 13:52:00,62.6,39.2,29.88,North,353,8.1,8.1,42,0.00,CLR,CLR,0.00,0.0,WeatherDisplay:10.37,2013-05-08 20:52:00,
2013-05-08 13:57:00,32.0,28.0,29.88,North,353,8.1,8.1,85,0.00,CLR,CLR,0.00,0.0,WeatherDisplay:10.37,2013-05-08 20:57:00,
2013-05-08 14:02:00,32.0,28.0,29.88,North,353,8.1,8.1,85,0.00,CLR,CLR,0.00,0.0,WeatherDisplay:10.37,2013-05-08 21:02:00,
2013-05-08 14:07:00,32.0,28.0,29.88,North,353,8.1,8.1,85,0.00,CLR,CLR,0.00,0.0,WeatherDisplay:10.37,2013-05-08 21:07:00,
2013-05-08 14:12:00,32.0,28.0,29.88,North,353,8.1,8.1,85,0.00,CLR,CLR,0.00,0.0,WeatherDisplay:10.37,2013-05-08 21:12:00,
2013-05-08 14:17:00,32.0,28.0,29.88,North,353,8.1,8.1,85,0.00,CLR,CLR,0.00,0.0,WeatherDisplay:10.37,2013-05-08 21:17:00,
2013-05-08 14:22:00,32.0,28.0,29.88,North,353,8.1,8.1,85,0.00,CLR,CLR,0.00,0.0,WeatherDisplay:10.37,2013-05-08 21:22:00,
2013-05-08 14:27:00,32.0,28.0,29.88,North,353,8.1,8.1,85,0.00,CLR,CLR,0.00,0.0,WeatherDisplay:10.37,2013-05-08 21:27:00,
2013-05-08 14:32:00,32.0,28.0,29.91,North,353,8.1,8.1,85,0.00,CLR,CLR,0.00,0.0,WeatherDisplay:10.37,2013-05-08 21:32:00,
2013-05-08 14:38:00,32.0,28.0,29.91,North,353,8.1,8.1,85,0.00,CLR,CLR,0.00,0.0,WeatherDisplay:10.37,2013-05-08 21:38:00,
2013-05-08 14:43:00,63.1,37.1,29.91,North,353,8.1,8.1,38,0.00,CLR,CLR,0.00,0.0,WeatherDisplay:10.37,2013-05-08 21:43:00,
2013-05-08 14:48:00,63.1,37.1,29.91,North,353,8.1,8.1,38,0.00,CLR,CLR,0.00,0.0,WeatherDisplay:10.37,2013-05-08 21:48:00,
2013-05-08 14:53:00,62.6,37.3,29.91,North,353,8.1,8.1,39,0.00,CLR,CLR,0.00,0.0,WeatherDisplay:10.37,2013-05-08 21:53:00,
2013-05-08 14:58:00,62.6,37.3,29.91,North,353,8.1,8.1,39,0.00,CLR,CLR,0.00,0.0,WeatherDisplay:10.37,2013-05-08 21:58:00,
2013-05-08 15:03:00,62.6,37.3,29.91,North,353,8.1,8.1,39,0.00,CLR,CLR,0.00,0.0,WeatherDisplay:10.37,2013-05-08 22:03:00,
2013-05-08 15:08:00,62.6,37.3,29.91,North,353,8.1,8.1,39,0.00,CLR,CLR,0.00,0.0,WeatherDisplay:10.37,2013-05-08 22:08:00,
2013-05-08 15:13:00,62.6,37.3,29.91,North,353,8.1,8.1,39,0.00,CLR,CLR,0.00,0.0,WeatherDisplay:10.37,2013-05-08 22:13:00,
2013-05-08 15:18:00,62.6,37.3,29.91,North,353,8.1,8.1,39,0.00,CLR,CLR,0.00,0.0,WeatherDisplay:10.37,2013-05-08 22:18:00,
2013-05-08 15:23:00,62.6,37.3,29.91,North,353,8.1,8.1,39,0.00,CLR,CLR,0.00,0.0,WeatherDisplay:10.37,2013-05-08 22:23:00,
2013-05-08 15:29:00,62.6,37.3,29.91,North,353,8.1,8.1,39,0.00,CLR,CLR,0.00,0.0,WeatherDisplay:10.37,2013-05-08 22:29:00,
2013-05-08 15:34:00,62.6,37.3,29.88,North,353,8.1,8.1,39,0.00,CLR,CLR,0.00,0.0,WeatherDisplay:10.37,2013-05-08 22:34:00,
2013-05-08 15:39:00,62.6,37.3,29.88,North,353,8.1,8.1,39,0.00,CLR,CLR,0.00,0.0,WeatherDisplay:10.37,2013-05-08 22:39:00,
2013-05-08 15:44:00,62.6,37.3,29.88,North,353,8.1,8.1,39,0.00,CLR,CLR,0.00,0.0,WeatherDisplay:10.37,2013-05-08 22:44:00,
2013-05-08 15:49:00,62.6,37.3,29.88,North,353,8.1,8.1,39,0.00,CLR,CLR,0.00,0.0,WeatherDisplay:10.37,2013-05-08 22:49:00,
2013-05-08 15:54:00,62.6,37.3,29.88,North,353,8.1,8.1,39,0.00,CLR,CLR,0.00,0.0,WeatherDisplay:10.37,2013-05-08 22:54:00,
2013-05-08 15:59:00,62.6,37.3,29.91,NE,50,8.1,8.1,39,0.00,CLR,CLR,0.00,0.0,WeatherDisplay:10.37,2013-05-08 22:59:00,
2013-05-08 16:04:00,63.1,37.8,29.91,NE,50,8.1,8.1,39,0.00,CLR,CLR,0.00,0.0,WeatherDisplay:10.37,2013-05-08 23:04:00,
2013-05-08 16:09:00,63.1,37.8,29.91,NE,50,8.1,8.1,39,0.00,CLR,CLR,0.00,0.0,WeatherDisplay:10.37,2013-05-08 23:09:00,
2013-05-08 16:15:00,63.1,37.8,29.91,NE,50,8.1,8.1,39,0.00,CLR,CLR,0.00,0.0,WeatherDisplay:10.37,2013-05-08 23:15:00,
2013-05-08 16:20:00,63.1,37.8,29.91,SE,140,8.1,0.0,39,0.00,CLR,CLR,0.00,0.0,WeatherDisplay:10.37,2013-05-08 23:20:00,
2013-05-08 16:25:00,63.1,37.8,29.91,SE,140,8.1,0.0,39,0.00,CLR,CLR,0.00,0.0,WeatherDisplay:10.37,2013-05-08 23:25:00,
2013-05-08 16:30:00,63.1,37.8,29.91,SE,140,8.1,0.0,39,0.00,CLR,CLR,0.00,0.0,WeatherDisplay:10.37,2013-05-08 23:30:00,
2013-05-08 16:35:00,63.1,37.8,29.91,SE,140,8.1,0.0,39,0.00,CLR,CLR,0.00,0.0,WeatherDisplay:10.37,2013-05-08 23:35:00,
2013-05-08 16:40:00,63.1,37.8,29.91,SE,140,8.1,0.0,39,0.00,CLR,CLR,0.00,0.0,WeatherDisplay:10.37,2013-05-08 23:40:00,
2013-05-08 16:45:00,63.1,37.8,29.91,SE,140,8.1,0.0,39,0.00,CLR,CLR,0.00,0.0,WeatherDisplay:10.37,2013-05-08 23:45:00,
2013-05-08 16:50:00,63.1,37.8,29.91,SSW,193,8.1,8.1,39,0.00,CLR,CLR,0.00,0.0,WeatherDisplay:10.37,2013-05-08 23:50:00,
2013-05-08 16:55:00,63.1,37.8,29.91,SSW,193,8.1,8.1,39,0.00,CLR,CLR,0.00,0.0,WeatherDisplay:10.37,2013-05-08 23:55:00,
2013-05-08 17:00:00,63.1,37.8,29.94,SW,230,8.1,8.1,39,0.00,CLR,CLR,0.00,0.0,WeatherDisplay:10.37,2013-05-09 00:00:00,
2013-05-08 17:05:00,63.1,37.8,29.94,SW,230,8.1,8.1,39,0.00,CLR,CLR,0.00,0.0,WeatherDisplay:10.37,2013-05-09 00:05:00,
2013-05-08 17:10:00,63.1,37.8,29.94,SW,230,8.1,8.1,39,0.00,CLR,CLR,0.00,0.0,WeatherDisplay:10.37,2013-05-09 00:10:00,
2013-05-08 17:15:00,63.1,37.8,29.94,SW,230,8.1,8.1,39,0.00,CLR,CLR,0.00,0.0,WeatherDisplay:10.37,2013-05-09 00:15:00,
2013-05-08 17:21:00,63.1,37.8,29.94,SW,230,8.1,8.1,39,0.00,CLR,CLR,0.00,0.0,WeatherDisplay:10.37,2013-05-09 00:21:00,
2013-05-08 17:26:00,63.1,37.8,29.94,North,0,8.1,8.1,39,0.00,CLR,CLR,0.00,0.0,WeatherDisplay:10.37,2013-05-09 00:26:00,
2013-05-08 17:31:00,63.1,37.8,29.91,North,0,8.1,8.1,39,0.00,CLR,CLR,0.00,0.0,WeatherDisplay:10.37,2013-05-09 00:31:00,
2013-05-08 17:36:00,63.1,37.8,29.91,North,0,8.1,8.1,39,0.00,CLR,CLR,0.00,0.0,WeatherDisplay:10.37,2013-05-09 00:36:00,
2013-05-08 17:41:00,63.1,37.8,29.91,North,0,8.1,8.1,39,0.00,CLR,CLR,0.00,0.0,WeatherDisplay:10.37,2013-05-09 00:41:00,
2013-05-08 17:46:00,63.7,36.9,29.91,North,0,8.1,8.1,37,0.00,CLR,CLR,0.00,0.0,WeatherDisplay:10.37,2013-05-09 00:46:00,
2013-05-08 17:51:00,63.7,36.9,29.91,North,0,8.1,8.1,37,0.00,CLR,CLR,0.00,0.0,WeatherDisplay:10.37,2013-05-09 00:51:00,
2013-05-08 17:56:00,63.7,36.9,29.91,North,0,8.1,8.1,37,0.00,CLR,CLR,0.00,0.0,WeatherDisplay:10.37,2013-05-09 00:56:00,
2013-05-08 18:01:00,63.7,36.9,29.91,North,0,8.1,8.1,37,0.00,CLR,CLR,0.00,0.0,WeatherDisplay:10.37,2013-05-09 01:01:00,
2013-05-08 18:06:00,63.7,36.9,29.91,North,0,8.1,8.1,37,0.00,CLR,CLR,0.00,0.0,WeatherDisplay:10.37,2013-05-09 01:06:00,
2013-05-08 18:12:00,63.7,36.9,29.91,North,0,8.1,8.1,37,0.00,CLR,CLR,0.00,0.0,WeatherDisplay:10.37,2013-05-09 01:12:00,
2013-05-08 18:17:00,63.7,36.9,29.91,North,0,8.1,8.1,37,0.00,CLR,CLR,0.00,0.0,WeatherDisplay:10.37,2013-05-09 01:17:00,
2013-05-08 18:22:00,63.7,36.9,29.91,North,0,8.1,8.1,37,0.00,CLR,CLR,0.00,0.0,WeatherDisplay:10.37,2013-05-09 01:22:00,
2013-05-08 18:27:00,63.7,36.9,29.91,North,0,8.1,8.1,37,0.00,CLR,CLR,0.00,0.0,WeatherDisplay:10.37,2013-05-09 01:27:00,
2013-05-08 18:32:00,63.7,36.9,29.91,North,0,8.1,8.1,37,0.00,CLR,CLR,0.00,0.0,WeatherDisplay:10.37,2013-05-09 01:32:00,
2013-05-08 18:37:00,63.7,36.9,29.91,North,0,8.1,8.1,37,0.00,CLR,CLR,0.00,0.0,WeatherDisplay:10.37,2013-05-09 01:37:00,
2013-05-08 18:42:00,63.7,36.9,29.91,North,0,8.1,8.1,37,0.00,CLR,CLR,0.00,0.0,WeatherDisplay:10.37,2013-05-09 01:42:00,
2013-05-08 18:48:00,60.6,38.6,29.88,North,0,8.1,8.1,44,0.00,CLR,CLR,0.00,0.0,WeatherDisplay:10.37,2013-05-09 01:48:00,
2013-05-08 18:53:00,60.6,38.6,29.88,North,0,8.1,8.1,44,0.00,CLR,CLR,0.00,0.0,WeatherDisplay:10.37,2013-05-09 01:53:00,
2013-05-08 18:58:00,60.6,38.6,29.91,North,0,8.1,8.1,44,0.00,CLR,CLR,0.00,0.0,WeatherDisplay:10.37,2013-05-09 01:58:00,
2013-05-08 19:03:00,60.6,38.6,29.91,North,0,8.1,8.1,44,0.00,CLR,CLR,0.00,0.0,WeatherDisplay:10.37,2013-05-09 02:03:00,
2013-05-08 19:08:00,60.6,38.6,29.91,North,0,8.1,8.1,44,0.00,CLR,CLR,0.00,0.0,WeatherDisplay:10.37,2013-05-09 02:08:00,
2013-05-08 19:13:00,60.6,38.6,29.91,North,0,8.1,8.1,44,0.00,CLR,CLR,0.00,0.0,WeatherDisplay:10.37,2013-05-09 02:13:00,
2013-05-08 19:18:00,60.6,38.6,29.91,North,0,8.1,8.1,44,0.00,CLR,CLR,0.00,0.0,WeatherDisplay:10.37,2013-05-09 02:18:00,
2013-05-08 19:23:00,60.6,38.6,29.91,NW,306,8.1,8.1,44,0.00,CLR,CLR,0.00,0.0,WeatherDisplay:10.37,2013-05-09 02:23:00,
2013-05-08 19:28:00,60.6,38.6,29.91,NW,306,8.1,8.1,44,0.00,CLR,CLR,0.00,0.0,WeatherDisplay:10.37,2013-05-09 02:28:00,
2013-05-08 19:33:00,60.6,38.6,29.91,NW,306,8.1,8.1,44,0.00,CLR,CLR,0.00,0.0,WeatherDisplay:10.37,2013-05-09 02:33:00,
2013-05-08 19:39:00,60.6,38.6,29.91,NW,306,8.1,8.1,44,0.00,CLR,CLR,0.00,0.0,WeatherDisplay:10.37,2013-05-09 02:39:00,
2013-05-08 19:44:00,60.6,38.6,29.91,NW,306,8.1,8.1,44,0.00,CLR,CLR,0.00,0.0,WeatherDisplay:10.37,2013-05-09 02:44:00,
2013-05-08 19:49:00,60.6,38.6,29.91,NW,306,8.1,8.1,44,0.00,CLR,CLR,0.00,0.0,WeatherDisplay:10.37,2013-05-09 02:49:00,
2013-05-08 19:54:00,60.6,38.6,29.91,NW,306,8.1,8.1,44,0.00,CLR,CLR,0.00,0.0,WeatherDisplay:10.37,2013-05-09 02:54:00,
2013-05-08 19:59:00,60.6,38.6,29.91,NW,306,8.1,8.1,44,0.00,CLR,CLR,0.00,0.0,WeatherDisplay:10.37,2013-05-09 02:59:00,
2013-05-08 20:04:00,60.6,38.6,29.91,NW,306,8.1,8.1,44,0.00,CLR,CLR,0.00,0.0,WeatherDisplay:10.37,2013-05-09 03:04:00,
2013-05-08 20:09:00,60.6,38.6,29.91,NW,306,8.1,8.1,44,0.00,CLR,CLR,0.00,0.0,WeatherDisplay:10.37,2013-05-09 03:09:00,
2013-05-08 20:14:00,60.6,38.6,29.91,NW,306,8.1,8.1,44,0.00,CLR,CLR,0.00,0.0,WeatherDisplay:10.37,2013-05-09 03:14:00,
2013-05-08 20:19:00,60.6,38.6,29.91,NW,306,8.1,8.1,44,0.00,CLR,CLR,0.00,0.0,WeatherDisplay:10.37,2013-05-09 03:19:00,
2013-05-08 20:24:00,60.6,38.6,29.91,NW,306,8.1,8.1,44,0.00,CLR,CLR,0.00,0.0,WeatherDisplay:10.37,2013-05-09 03:24:00,
2013-05-08 20:30:00,60.6,38.6,29.91,NW,306,8.1,8.1,44,0.00,CLR,CLR,0.00,0.0,WeatherDisplay:10.37,2013-05-09 03:30:00,
2013-05-08 20:35:00,60.6,38.6,29.91,NW,306,8.1,8.1,44,0.00,CLR,CLR,0.00,0.0,WeatherDisplay:10.37,2013-05-09 03:35:00,
2013-05-08 20:40:00,60.6,38.6,29.91,NW,306,8.1,8.1,44,0.00,CLR,CLR,0.00,0.0,WeatherDisplay:10.37,2013-05-09 03:40:00,
2013-05-08 20:45:00,60.6,38.6,29.91,NW,306,8.1,8.1,44,0.00,CLR,CLR,0.00,0.0,WeatherDisplay:10.37,2013-05-09 03:45:00,
2013-05-08 20:50:00,53.8,39.3,29.91,NW,306,8.1,8.1,58,0.00,CLR,CLR,0.00,0.0,WeatherDisplay:10.37,2013-05-09 03:50:00,
2013-05-08 20:55:00,53.8,39.3,29.91,NW,306,8.1,8.1,58,0.00,CLR,CLR,0.00,0.0,WeatherDisplay:10.37,2013-05-09 03:55:00,
2013-05-08 21:00:00,53.8,39.3,29.91,NW,306,8.1,8.1,58,0.00,CLR,CLR,0.00,0.0,WeatherDisplay:10.37,2013-05-09 04:00:00,
2013-05-08 21:01:00,53.8,39.3,29.91,NW,306,8.1,8.1,58,0.00,CLR,CLR,0.00,0.0,WeatherDisplay:10.37,2013-05-09 04:01:00,
2013-05-08 21:02:00,53.8,39.3,29.91,NW,306,8.1,8.1,58,0.00,CLR,CLR,0.00,0.0,WeatherDisplay:10.37,2013-05-09 04:02:00,
2013-05-08 21:03:00,53.8,39.3,29.91,NW,306,8.1,8.1,58,0.00,CLR,CLR,0.00,0.0,WeatherDisplay:10.37,2013-05-09 04:03:00,
2013-05-08 21:04:00,53.8,39.3,29.91,NW,306,8.1,8.1,58,0.00,CLR,CLR,0.00,0.0,WeatherDisplay:10.37,2013-05-09 04:04:00,
2013-05-08 21:09:00,53.8,39.3,29.91,NW,306,8.1,8.1,58,0.00,CLR,CLR,0.00,0.0,WeatherDisplay:10.37,2013-05-09 04:09:00,
2013-05-08 21:14:00,53.8,39.3,29.91,NW,306,8.1,8.1,58,0.00,CLR,CLR,0.00,0.0,WeatherDisplay:10.37,2013-05-09 04:14:00,
2013-05-08 21:19:00,53.8,39.3,29.91,NW,306,8.1,8.1,58,0.00,CLR,CLR,0.00,0.0,WeatherDisplay:10.37,2013-05-09 04:19:00,
2013-05-08 21:24:00,53.8,39.3,29.91,NW,306,8.1,8.1,58,0.00,CLR,CLR,0.00,0.0,WeatherDisplay:10.37,2013-05-09 04:24:00,
2013-05-08 21:29:00,53.8,39.3,29.91,NW,306,8.1,8.1,58,0.00,CLR,CLR,0.00,0.0,WeatherDisplay:10.37,2013-05-09 04:29:00,
2013-05-08 21:34:00,32.0,-35.6,29.91,North,0,8.1,8.1,4,0.00,CLR,CLR,0.00,0.0,WeatherDisplay:10.37,2013-05-09 04:34:00,
2013-05-08 21:40:00,32.0,-35.6,29.91,North,0,8.1,8.1,4,0.00,CLR,CLR,0.00,0.0,WeatherDisplay:10.37,2013-05-09 04:40:00,
2013-05-08 21:45:00,32.0,-35.6,29.91,North,0,8.1,8.1,4,0.00,CLR,CLR,0.00,0.0,WeatherDisplay:10.37,2013-05-09 04:45:00,
2013-05-08 21:50:00,32.0,-35.6,29.91,North,0,8.1,8.1,4,0.00,CLR,CLR,0.00,0.0,WeatherDisplay:10.37,2013-05-09 04:50:00,
2013-05-08 21:55:00,52.7,40.9,29.91,North,0,8.1,8.1,64,0.00,CLR,CLR,0.00,0.0,WeatherDisplay:10.37,2013-05-09 04:55:00,
2013-05-08 22:00:00,52.7,40.9,29.91,North,0,8.1,8.1,64,0.00,CLR,CLR,0.00,0.0,WeatherDisplay:10.37,2013-05-09 05:00:00,
2013-05-08 22:05:00,52.7,40.9,29.91,NW,305,8.1,0.0,64,0.00,CLR,CLR,0.00,0.0,WeatherDisplay:10.37,2013-05-09 05:05:00,
2013-05-08 22:10:00,52.7,40.9,29.91,NW,305,8.1,0.0,64,0.00,CLR,CLR,0.00,0.0,WeatherDisplay:10.37,2013-05-09 05:10:00,
2013-05-08 22:15:00,52.7,40.9,29.91,West,266,8.1,0.0,64,0.00,CLR,CLR,0.00,0.0,WeatherDisplay:10.37,2013-05-09 05:15:00,
2013-05-08 22:20:00,52.7,40.9,29.91,West,266,8.1,0.0,64,0.00,CLR,CLR,0.00,0.0,WeatherDisplay:10.37,2013-05-09 05:20:00,
2013-05-08 22:25:00,52.7,40.9,29.91,West,266,8.1,0.0,64,0.00,CLR,CLR,0.00,0.0,WeatherDisplay:10.37,2013-05-09 05:25:00,
2013-05-08 22:30:00,52.7,40.9,29.91,West,266,8.1,0.0,64,0.00,CLR,CLR,0.00,0.0,WeatherDisplay:10.37,2013-05-09 05:30:00,
2013-05-08 22:35:00,52.7,40.9,29.91,West,266,8.1,0.0,64,0.00,CLR,CLR,0.00,0.0,WeatherDisplay:10.37,2013-05-09 05:35:00,
2013-05-08 22:41:00,52.7,40.9,29.91,West,266,8.1,0.0,64,0.00,CLR,CLR,0.00,0.0,WeatherDisplay:10.37,2013-05-09 05:41:00,
2013-05-08 22:46:00,52.7,40.9,29.91,West,266,8.1,0.0,64,0.00,CLR,CLR,0.00,0.0,WeatherDisplay:10.37,2013-05-09 05:46:00,
2013-05-08 22:51:00,52.7,40.9,29.91,West,266,8.1,0.0,64,0.00,CLR,CLR,0.00,0.0,WeatherDisplay:10.37,2013-05-09 05:51:00,
2013-05-08 22:56:00,52.7,40.9,29.91,WNW,292,8.1,0.0,64,0.00,CLR,CLR,0.00,0.0,WeatherDisplay:10.37,2013-05-09 05:56:00,
2013-05-08 23:01:00,52.3,41.3,29.91,North,0,8.1,0.0,66,0.00,CLR,CLR,0.00,0.0,WeatherDisplay:10.37,2013-05-09 06:01:00,
2013-05-08 23:06:00,52.3,41.3,29.91,West,278,8.1,0.0,66,0.00,CLR,CLR,0.00,0.0,WeatherDisplay:10.37,2013-05-09 06:06:00,
2013-05-08 23:11:00,52.3,41.3,29.91,West,278,8.1,0.0,66,0.00,CLR,CLR,0.00,0.0,WeatherDisplay:10.37,2013-05-09 06:11:00,
2013-05-08 23:16:00,52.3,41.3,29.91,West,278,8.1,0.0,66,0.00,CLR,CLR,0.00,0.0,WeatherDisplay:10.37,2013-05-09 06:16:00,
2013-05-08 23:21:00,52.3,41.3,29.91,West,278,8.1,0.0,66,0.00,CLR,CLR,0.00,0.0,WeatherDisplay:10.37,2013-05-09 06:21:00,
2013-05-08 23:26:00,51.6,41.0,29.91,West,278,8.1,0.0,67,0.00,CLR,CLR,0.00,0.0,WeatherDisplay:10.37,2013-05-09 06:26:00,
2013-05-08 23:31:00,51.6,41.0,29.91,West,278,8.1,0.0,67,0.00,CLR,CLR,0.00,0.0,WeatherDisplay:10.37,2013-05-09 06:31:00,
2013-05-08 23:36:00,51.6,41.0,29.91,West,278,8.1,0.0,67,0.00,CLR,CLR,0.00,0.0,WeatherDisplay:10.37,2013-05-09 06:36:00,
2013-05-08 23:42:00,51.6,41.0,29.91,West,278,8.1,0.0,67,0.00,CLR,CLR,0.00,0.0,WeatherDisplay:10.37,2013-05-09 06:42:00,
2013-05-08 23:47:00,51.6,41.0,29.91,West,278,8.1,0.0,67,0.00,CLR,CLR,0.00,0.0,WeatherDisplay:10.37,2013-05-09 06:47:00,
2013-05-08 23:52:00,51.6,41.0,29.91,West,278,8.1,0.0,67,0.00,CLR,CLR,0.00,0.0,WeatherDisplay:10.37,2013-05-09 06:52:00,
2013-05-08 23:57:00,51.6,41.0,29.91,West,278,8.1,0.0,67,0.00,CLR,CLR,0.00,0.0,WeatherDisplay:10.37,2013-05-09 06:57:00,